Location: Newark
(45.4333°N, 10.9833°E)
Time: 04:38:38
(UTC+00:00)

ISS - Visible Passes

Search period start: 10 December 2019 00:00
Search period end: 20 December 2019 00:00
Orbit: 411 x 421 km, 51.6° (Epoch: 10 December)

Date Brightness Start Highest point End Pass type
(mag) Time Alt. Az. Time Alt. Az. Time Alt. Az.
10 Dec -1.2 17:27:05 10° W 17:29:42 21° SW 17:32:19 10° S visible
11 Dec -2.0 16:38:17 10° WNW 16:41:22 34° SW 16:44:26 10° SSE visible
13 Dec -0.5 16:38:56 10° W 16:40:46 14° SW 16:42:38 10° SSW visible
